Regional Weather Roundup
Issued by NWS

Home | Current Version | Previous Version | Text Only | Print | Product List | Glossary On
Versions: 1 2 3 4 5 6 7 8 9 10 11 12 13 14 15 16 17 18 19 20 21 22 23 24 25 26 27
000
ASUS46 KPQR 231410
RWROR

OREGON REGIONAL WEATHER ROUNDUP
NATIONAL WEATHER SERVICE PORTLAND OR
600 AM PST THU FEB 23 2017

NOTE: "FAIR" INDICATES FEW OR NO CLOUDS BELOW 12,000 FEET WITH
NO SIGNIFICANT WEATHER AND/OR OBSTRUCTIONS TO VISIBILITY.

ORZ001>013-231500-
NORTHWEST OREGON


CITY           SKY/WX    TMP DP  RH WIND       PRES   REMARKS
ASTORIA        PTCLDY    31  28  89 SE3       30.24S
PORTLAND       CLOUDY    34  33  96 CALM      30.26R
VANCOUVER WA   MOCLDY    32  32 100 CALM      30.26R FOG
SCAPPOOSE      FOG       31  31 100 W3        30.26R VSB 1/4
HILLSBORO      FOG       30  28  92 CALM      30.25R VSB 1/4
AURORA         FOG       33  31  92 SW3       30.26S VSB 3/4
MCMINNVILLE    FOG       32  31  96 CALM      30.26S VSB 1/4
SALEM          CLOUDY    33  31  92 SE3       30.25R
CORVALLIS        N/A     34  30  86 NW3       30.26S
EUGENE         FOG       32  32 100 CALM      30.26S VSB 3/4
$$

ORZ021-028-231500-
SOUTHWEST OREGON


CITY           SKY/WX    TMP DP  RH WIND       PRES   REMARKS
NORTH BEND     CLOUDY    36  36 100 SE6       30.30R WCI  31
BROOKINGS      CLEAR     31  31 100 CALM      30.26R
ROSEBURG       CLOUDY    35  34  96 CALM      30.26R
SEXTON SUMMIT  CLOUDY    24  22  91 CALM      30.08S
MEDFORD        CLOUDY    32  31  96 CALM      30.21R
$$

ORZ014>016-041-231500-
COLUMBIA GORGE


CITY           SKY/WX    TMP DP  RH WIND       PRES   REMARKS
TROUTDALE      CLOUDY    38  35  89 CALM      30.25S
THE DALLES     CLEAR     34  29  82 NW6       30.18S WCI  29
$$

ORZ029>031-041-044-049-050-061>064-502-503-505>511-231500-
EASTERN OREGON


CITY           SKY/WX    TMP DP  RH WIND       PRES   REMARKS
REDMOND        CLOUDY    27  21  78 S3        30.08S
BEND           CLOUDY    23  19  86 SW6       30.08R WCI  16
PRINEVILLE     CLOUDY    28  25  86 W5        30.08R WCI  23
KLAMATH FALLS  CLOUDY    26  21  81 W7        30.04R WCI  18
LAKEVIEW       CLOUDY    23  18  80 N8        30.00S WCI  14
HERMISTON      CLEAR     25  25 100 CALM      30.14R
PENDLETON      MOCLDY    29  26  89 W5        30.10R WCI  24
JOHN DAY       MOCLDY    27  23  85 W10       30.01R WCI  17
MEACHAM        CLOUDY    24  20  84 CALM      29.98F
LA GRANDE      MOCLDY    28  21  74 N6        30.01R WCI  22
BAKER CITY     CLOUDY    27  22  81 NW17      29.96R WCI  14
BURNS          CLOUDY    21  15  78 W10       29.95S WCI  10
ROME             N/A     23  17  78 SW9       29.91S WCI  13
ONTARIO        CLOUDY    33  24  69 NW23      29.93R WCI  21
$$




USA.gov is the U.S. government's official web portal to all federal, state and local government web resources and services.